When you browse on this site, cookies collect data to enhance your experience and personalize the content and advertising you see.
Visit our Privacy Policy to learn more. By continuing to use the site, you agree to this use of cookies and data.
  • In Schweiz
  • Länderverzeichnis
  • Für 7 Tage
  • Wassertemperatur
  • Wetterkarte
  • Widgets
  • user-avatar
    Anmelden

    Stündliche Wetter Kalgoorlie

    Heute, 20 Februar, Donnerstag

    Zeit Temperatur Niederschläge Wind Luftdruck Luftfeuchtigkeit
    00:00 +23°C° 0 mm 5 m/S 729 mmHg 42%
    01:00 +22°C° 0 mm 6 m/S 729 mmHg 45%
    02:00 +21°C° 0 mm 6 m/S 729 mmHg 46%
    03:00 +20°C° 0 mm 6 m/S 729 mmHg 51%
    04:00 +19°C° 0 mm 6 m/S 729 mmHg 56%
    05:00 +19°C° 0 mm 5 m/S 730 mmHg 61%
    06:00 +19°C° 0 mm 6 m/S 730 mmHg 58%
    07:00 +20°C° 0 mm 6 m/S 731 mmHg 56%
    08:00 +21°C° 0 mm 6 m/S 731 mmHg 51%
    09:00 +23°C° 0 mm 6 m/S 732 mmHg 44%
    10:00 +26°C° 0 mm 6 m/S 732 mmHg 38%
    11:00 +28°C° 0 mm 6 m/S 732 mmHg 31%
    12:00 +28°C° 0 mm 6 m/S 731 mmHg 30%
    13:00 +29°C° 0 mm 6 m/S 731 mmHg 28%
    14:00 +30°C° 0 mm 6 m/S 730 mmHg 27%
    15:00 +30°C° 0 mm 6 m/S 730 mmHg 27%
    16:00 +30°C° 0 mm 6 m/S 730 mmHg 27%
    17:00 +30°C° 0 mm 6 m/S 730 mmHg 27%
    18:00 +29°C° 0 mm 6 m/S 730 mmHg 28%
    19:00 +28°C° 0 mm 5 m/S 731 mmHg 30%
    20:00 +28°C° 0 mm 5 m/S 731 mmHg 31%
    21:00 +26°C° 0 mm 6 m/S 731 mmHg 35%
    22:00 +24°C° 0 mm 7 m/S 731 mmHg 39%
    23:00 +23°C° 0 mm 9 m/S 732 mmHg 44%

    Morgen, 21 Februar, Freitag

    Zeit Temperatur Niederschläge Wind Luftdruck Luftfeuchtigkeit
    00:00 +21°C° 0 mm 8 m/S 731 mmHg 50%
    01:00 +20°C° 0 mm 8 m/S 731 mmHg 57%
    02:00 +18°C° 0 mm 7 m/S 731 mmHg 63%
    03:00 +17°C° 0 mm 7 m/S 731 mmHg 65%
    04:00 +17°C° 0 mm 7 m/S 732 mmHg 67%
    05:00 +16°C° 0 mm 6 m/S 732 mmHg 69%
    06:00 +17°C° 0 mm 6 m/S 732 mmHg 65%
    07:00 +19°C° 0 mm 6 m/S 732 mmHg 62%
    08:00 +19°C° 0 mm 6 m/S 733 mmHg 58%
    09:00 +21°C° 0 mm 6 m/S 733 mmHg 49%
    10:00 +24°C° 0 mm 6 m/S 733 mmHg 39%
    11:00 +27°C° 0 mm 6 m/S 732 mmHg 29%
    12:00 +28°C° 0 mm 5 m/S 732 mmHg 27%
    13:00 +30°C° 0 mm 5 m/S 731 mmHg 25%
    14:00 +32°C° 0 mm 4 m/S 730 mmHg 22%
    21:00 +30°C° 0 mm 4 m/S 728 mmHg 32%
    22:00 +28°C° 0 mm 6 m/S 731 mmHg 32%
    23:00 +27°C° 0 mm 7 m/S 731 mmHg 33%

    übermorgen, 22 Februar, Samstag

    Zeit Temperatur Niederschläge Wind Luftdruck Luftfeuchtigkeit
    00:00 +24°C° 0 mm 7 m/S 731 mmHg 38%
    01:00 +23°C° 0 mm 7 m/S 730 mmHg 44%
    02:00 +21°C° 0 mm 8 m/S 730 mmHg 49%
    03:00 +21°C° 0 mm 8 m/S 730 mmHg 52%
    04:00 +21°C° 0 mm 7 m/S 730 mmHg 54%
    05:00 +21°C° 0 mm 7 m/S 730 mmHg 56%
    06:00 +21°C° 0 mm 7 m/S 731 mmHg 54%
    07:00 +21°C° 0 mm 7 m/S 731 mmHg 52%
    08:00 +22°C° 0 mm 7 m/S 731 mmHg 50%
    09:00 +23°C° 0 mm 6 m/S 731 mmHg 46%
    10:00 +26°C° 0 mm 6 m/S 731 mmHg 41%
    11:00 +27°C° 0 mm 5 m/S 731 mmHg 37%
    12:00 +28°C° 0 mm 5 m/S 730 mmHg 37%
    13:00 +28°C° 0 mm 4 m/S 730 mmHg 37%
    14:00 +28°C° 0 mm 4 m/S 729 mmHg 37%
    15:00 +28°C° 0 mm 4 m/S 729 mmHg 39%
    16:00 +27°C° 0 mm 4 m/S 729 mmHg 40%
    17:00 +27°C° 0 mm 4 m/S 728 mmHg 41%
    18:00 +27°C° 0 mm 4 m/S 728 mmHg 42%
    19:00 +26°C° 0 mm 5 m/S 728 mmHg 44%
    20:00 +26°C° 0 mm 6 m/S 728 mmHg 45%
    21:00 +24°C° 0.1 mm 6 m/S 728 mmHg 46%
    22:00 +25°C° 0.1 mm 5 m/S 729 mmHg 47%
    23:00 +25°C° 0.1 mm 5 m/S 729 mmHg 48%

    23 Februar, Sonntag

    Zeit Temperatur Niederschläge Wind Luftdruck Luftfeuchtigkeit
    00:00 +23°C° 0.5 mm 5 m/S 729 mmHg 54%
    01:00 +22°C° 0.5 mm 4 m/S 728 mmHg 59%
    02:00 +21°C° 0.5 mm 4 m/S 728 mmHg 65%
    03:00 +21°C° 0.1 mm 5 m/S 728 mmHg 66%
    04:00 +20°C° 0.1 mm 6 m/S 728 mmHg 67%
    05:00 +20°C° 0.1 mm 7 m/S 728 mmHg 68%
    06:00 +21°C° 0 mm 6 m/S 728 mmHg 65%
    07:00 +22°C° 0 mm 6 m/S 729 mmHg 62%
    08:00 +25°C° 0 mm 5 m/S 729 mmHg 60%
    09:00 +26°C° 0 mm 5 m/S 729 mmHg 54%
    10:00 +28°C° 0 mm 5 m/S 729 mmHg 49%
    11:00 +29°C° 0 mm 5 m/S 729 mmHg 44%
    12:00 +30°C° 0 mm 4 m/S 728 mmHg 41%
    13:00 +31°C° 0 mm 3 m/S 728 mmHg 39%
    14:00 +32°C° 0 mm 2 m/S 727 mmHg 37%
    15:00 +34°C° 0 mm 2 m/S 727 mmHg 36%
    16:00 +34°C° 0 mm 3 m/S 727 mmHg 36%
    17:00 +34°C° 0 mm 3 m/S 727 mmHg 35%
    18:00 +33°C° 0.1 mm 3 m/S 727 mmHg 37%
    19:00 +33°C° 0.1 mm 4 m/S 728 mmHg 38%
    20:00 +32°C° 0.1 mm 4 m/S 728 mmHg 40%
    21:00 +30°C° 0.2 mm 6 m/S 728 mmHg 42%
    22:00 +28°C° 0.2 mm 7 m/S 728 mmHg 44%
    23:00 +27°C° 0.2 mm 9 m/S 729 mmHg 46%

    24 Februar, Montag

    Zeit Temperatur Niederschläge Wind Luftdruck Luftfeuchtigkeit
    00:00 +26°C° 0.1 mm 8 m/S 729 mmHg 49%
    01:00 +26°C° 0.1 mm 8 m/S 729 mmHg 51%
    02:00 +24°C° 0.1 mm 7 m/S 728 mmHg 53%
    03:00 +23°C° 0.4 mm 6 m/S 729 mmHg 57%
    04:00 +23°C° 0.4 mm 6 m/S 729 mmHg 61%
    05:00 +22°C° 0.4 mm 5 m/S 730 mmHg 65%
    06:00 +23°C° 0.4 mm 5 m/S 730 mmHg 64%
    07:00 +23°C° 0.4 mm 6 m/S 731 mmHg 63%
    08:00 +23°C° 0.4 mm 6 m/S 731 mmHg 62%
    09:00 +26°C° 0.2 mm 6 m/S 731 mmHg 56%
    10:00 +28°C° 0.2 mm 6 m/S 731 mmHg 50%
    11:00 +30°C° 0.2 mm 6 m/S 731 mmHg 45%
    12:00 +32°C° 0.1 mm 6 m/S 731 mmHg 41%
    13:00 +33°C° 0.1 mm 5 m/S 730 mmHg 38%
    14:00 +34°C° 0.1 mm 5 m/S 730 mmHg 34%
    15:00 +35°C° 0 mm 5 m/S 729 mmHg 33%
    16:00 +35°C° 0 mm 5 m/S 729 mmHg 33%
    17:00 +35°C° 0 mm 5 m/S 729 mmHg 32%
    18:00 +34°C° 0 mm 5 m/S 729 mmHg 34%
    19:00 +33°C° 0 mm 5 m/S 730 mmHg 36%
    20:00 +32°C° 0 mm 4 m/S 730 mmHg 38%
    21:00 +30°C° 0 mm 4 m/S 730 mmHg 40%
    22:00 +30°C° 0 mm 4 m/S 730 mmHg 41%
    23:00 +29°C° 0 mm 4 m/S 731 mmHg 42%

    25 Februar, Dienstag

    Zeit Temperatur Niederschläge Wind Luftdruck Luftfeuchtigkeit
    00:00 +28°C° 0 mm 4 m/S 731 mmHg 47%
    01:00 +27°C° 0 mm 5 m/S 730 mmHg 51%
    02:00 +25°C° 0 mm 5 m/S 730 mmHg 56%
    03:00 +25°C° 0 mm 5 m/S 730 mmHg 58%
    04:00 +23°C° 0 mm 5 m/S 731 mmHg 60%
    05:00 +23°C° 0 mm 5 m/S 731 mmHg 62%
    06:00 +23°C° 0 mm 5 m/S 731 mmHg 60%
    07:00 +25°C° 0 mm 5 m/S 731 mmHg 58%
    08:00 +24°C° 0 mm 6 m/S 731 mmHg 56%
    09:00 +27°C° 0 mm 5 m/S 731 mmHg 49%
    10:00 +29°C° 0 mm 5 m/S 731 mmHg 42%
    11:00 +33°C° 0 mm 5 m/S 731 mmHg 35%
    12:00 +34°C° 0 mm 5 m/S 731 mmHg 33%
    13:00 +35°C° 0 mm 5 m/S 731 mmHg 30%
    14:00 +36°C° 0 mm 5 m/S 730 mmHg 28%
    15:00 +36°C° 0 mm 4 m/S 730 mmHg 28%
    16:00 +36°C° 0 mm 4 m/S 730 mmHg 27%
    17:00 +36°C° 0 mm 4 m/S 730 mmHg 27%
    18:00 +35°C° 0 mm 5 m/S 730 mmHg 29%
    19:00 +34°C° 0 mm 6 m/S 731 mmHg 31%
    20:00 +33°C° 0 mm 6 m/S 731 mmHg 34%
    21:00 +32°C° 0 mm 7 m/S 731 mmHg 36%
    22:00 +30°C° 0 mm 7 m/S 731 mmHg 38%
    23:00 +29°C° 0 mm 8 m/S 731 mmHg 41%
    Mehr zeigen